SL-14 DEB

Satellite information

Favourite Embed

Satellite Type and Status

DEBRISIN ORBIT

Key statistics

Satellite SL-14 DEB at a glance.

Uptime

12380

Days in orbit

Revolutions

≈ 13.6

Per day

Orbit

LEO

Low Earth Orbit

Inclination

82.6

Latest

Satellite identification and parameters

Extended collection of information and parameters for SL-14 DEB.

Object identification

Identified? True

Debris? True

Object name: SL-14 DEB

International designator: 1991-056AQ

Object number (NORAD): 45302

Object ID (CCSDS): 45302

Country: COMMONWEALTH OF INDEPENDENT STATES (CIS)

Current information (Y/N): Y

RCS size: SMALL

Orbital parameters

Period: 105.916 minutes

Inclination: 82.6062 deg

SMA: 7415.387 km

Apoapsis: 1105.935 km

Periapsis: 968.568 km

RAAN: 333.1854 deg

Eccentricy: 0.0092623

Argument of periapsis: 54.958 deg

Mean anomaly: 306.0212 deg

Mean motion: 13.59571507 rev/day

Mean motion (dot): 0.0000597 rev/day2

B* drag term: 0.0078164 1/REarth

Two-line elements (TLE)

Creation date: July 5, 2025, 5:45 p.m.

Reference frame: TEME

Reference center: EARTH

Epoch: July 5, 2025, 9:04 a.m. UTC

TLE line 0: 0 SL-14 DEB

TLE line 1: 1 45302U 91056AQ 25186.37816410 .00005970 00000-0 78164-2 0 9996

TLE line 2: 2 45302 82.6062 333.1854 0092623 54.9580 306.0212 13.59571507263761

Live tracking on map

Real-time ground track for satellite SL-14 DEB.

In-orbit conjunctions

A list of the most updated potential collisions computed for object SL-14 DEB.

Target Orbit TCA Probability of collision Miss distance Type
COSMOS 1238 LEO 2025-03-26 20:42:37 0.0002278679 75.0 (m) PAYLOAD

Associated space launch

Third generation meteorological satellite

SL-14 DEB was lifted into orbit during the mission ‘Tsiklon-3 | Meteor-3 5’, on board a Tsiklon-3 space rocket.

The launch took place on Aug. 15, 1991, 9:15 a.m. from 32/2.

For more information about the launch, click the button.

Launch to space Tsiklon-3 | Meteor-3 5
Tsiklon-3 | Meteor-3 5

Agency: N/A

Status: Launch Successful

Launch date: Aug. 15, 1991, 9:15 a.m. UTC

Rocket: Tsiklon-3

Launch pad: 32/2

Location: Plesetsk Cosmodrome, Russian Federation

...

Latest news about this satellite

There are no fresh news available about this satellite. Check back as we update our databases every day.


Newsletter sign-up

Weekly statistics, charts and insights to help you stay on top of the space industry.